Starlink 5103

operational
NORAD ID: 53983 Int'l Des: 2022-125 Owner: SPXS Country: US Constellation: starlink
LEOCIRCULAR

Starlink 5103について

説明を読み込み中...

リアルタイム位置

3D地球を読み込み中...

次回通過

高度履歴

Altitude vs Time

uPlot chart will show altitude changes over time

軌道要素

1 53983U 22125V 25351.66670139 .00903043 00000-0 28013-1 0 9998
2 53983 53.2260 210.7323 0001445 106.6078 236.6293 15.30532158 5805
Epoch: Dec 17, 2025 • Age: 5 hours

現在のステータス

高度 473.7 km
速度 7.63 km/s
衛星直下点 6.00°N, 175.43°E
打ち上げ日 Oct 5, 2022
運用期間 3.1 years
タイプ internet

技術仕様

分類 Payload
質量 305.00 kg
乾燥質量 290.00 kg
総質量 305.00 kg
長さ 0.20 m
直径 2.80 m
スパン 9.00 m
形状 Box + pan
製造者 SPXS
バスタイプ Starlink
フェーズステータス In Orbit
所有者/国 SPXS/US

大規模コンステレーション

Loading constellations...